Terminal Aerodrome Forecast
Issued by NWS Tiyan, Guam

Home | Current Version | Previous Version | Text Only | Print | Product List | Glossary On
Versions: 1 2 3 4 5 6 7 8 9 10 11 12 13 14 15 16 17 18 19 20 21 22 23 24 25 26 27 28 29 30
000
FTPQ31 PGUM 152300
TAFPQ
TAF
PGUM 152340Z 1600/1706 14011KT P6SM VCSH SCT017 SCT050 BKN100
      TEMPO 1600/1602 -SHRA BKN016 BKN050 OVC100=

USA.gov is the U.S. government's official web portal to all federal, state and local government web resources and services.